This is the latest recevied weather packets stored in our database for station/object KD6VEX-1. If no packets are shown the sender has not sent any weather packets the latest 10 day(s).
| Time | Temp. | Humidity | Pressure | Rain* | Wind** | Luminosity | Snow |
|---|---|---|---|---|---|---|---|
| 1777781444 | 12.78° C | 79% | 1011.8 hPa | 0 mm | - | - | - |
| 1777780544 | 13.33° C | 78% | 1011.8 hPa | 0 mm | - | - | - |
| 1777779589 | 13.33° C | 77% | 1011.6 hPa | 0 mm | - | - | - |
| 1777778988 | 13.89° C | 77% | 1011.4 hPa | 0 mm | - | - | - |
| 1777778689 | 13.89° C | 76% | 1011.4 hPa | 0 mm | - | - | - |
| 1777777788 | 14.44° C | 75% | 1011.2 hPa | 0 mm | - | - | - |
| 1777777189 | 14.44° C | 74% | 1011 hPa | 0 mm | - | - | - |
| 1777776891 | 15° C | 73% | 1010.9 hPa | 0 mm | - | - | - |
| 1777776450 | 15.56° C | 71% | 1010.7 hPa | 0 mm | - | - | - |
| 1777776409 | 15.56° C | 70% | 1010.6 hPa | 0 mm | - | - | - |
| 1777776409 | 15.56° C | 72% | 1010.7 hPa | 0 mm | - | - | - |
| 1777776409 | 15.56° C | 71% | 1010.7 hPa | 0 mm | - | - | - |
| 1777776288 | 15.56° C | 72% | 1010.7 hPa | 0 mm | - | - | - |
| 1777775989 | 15.56° C | 71% | 1010.7 hPa | 0 mm | - | - | - |
| 1777775689 | 15.56° C | 70% | 1010.6 hPa | 0 mm | - | - | - |
| 1777775388 | 16.11° C | 70% | 1010.6 hPa | 0 mm | - | - | - |
| 1777775088 | 16.11° C | 69% | 1010.5 hPa | 0 mm | - | - | - |
| 1777774189 | 17.22° C | 66% | 1010.4 hPa | 0 mm | - | - | - |
| 1777773588 | 17.78° C | 64% | 1010.3 hPa | 0 mm | - | - | - |
| 1777773290 | 17.78° C | 64% | 1010.5 hPa | 0 mm | - | - | - |
| 1777772990 | 18.33° C | 62% | 1010.4 hPa | 0 mm | - | - | - |
| 1777772621 | 18.89° C | 61% | 1010.4 hPa | 0 mm | - | - | - |
| 1777772321 | 19.44° C | 60% | 1010.4 hPa | 0 mm | - | - | - |
| 1777772021 | 20° C | 59% | 1010.4 hPa | 0 mm | - | - | - |
| 1777771721 | 20° C | 58% | 1010.4 hPa | 0 mm | - | - | - |
* Rain latest hour (hover to see other rain measurements)
** Current wind speed in m/s (hover to see current wind gust speed)